• Em Portugal
  • Lista de países
  • Para 7 dias
  • Temperatura da água
  • Mapas de satélite
  • Mapa do tempo
  • Widgets de tempo
  • user-avatar
    Iniciar Sessão

    Previsão horária em Smolan

    Hoje, 25 Setembro, Terça-feira

    Tempo Temperatura Precipitação Vento Pressão Humidade
    00:00 +10°C° 0.1 mm 3 m/s 658 mmHg 70%
    01:00 +10°C° 0.1 mm 3 m/s 658 mmHg 70%
    02:00 +9°C° 0.1 mm 3 m/s 659 mmHg 69%
    03:00 +7°C° 0 mm 4 m/s 659 mmHg 68%
    04:00 +7°C° 0 mm 4 m/s 659 mmHg 67%
    05:00 +6°C° 0 mm 4 m/s 660 mmHg 66%
    06:00 +6°C° 0.1 mm 4 m/s 660 mmHg 63%
    07:00 +6°C° 0.1 mm 4 m/s 661 mmHg 59%
    08:00 +6°C° 0.1 mm 4 m/s 661 mmHg 56%
    09:00 +7°C° 0 mm 4 m/s 661 mmHg 47%
    10:00 +10°C° 0 mm 4 m/s 662 mmHg 38%
    11:00 +11°C° 0 mm 4 m/s 663 mmHg 30%
    12:00 +12°C° 0 mm 4 m/s 663 mmHg 28%
    13:00 +13°C° 0 mm 4 m/s 663 mmHg 26%
    14:00 +13°C° 0 mm 4 m/s 663 mmHg 24%
    15:00 +13°C° 0 mm 4 m/s 663 mmHg 25%
    16:00 +12°C° 0 mm 4 m/s 662 mmHg 27%
    17:00 +11°C° 0 mm 4 m/s 662 mmHg 28%
    18:00 +8°C° 0 mm 4 m/s 662 mmHg 32%
    19:00 +7°C° 0 mm 3 m/s 662 mmHg 35%
    20:00 +4°C° 0 mm 3 m/s 662 mmHg 38%
    21:00 +3°C° 0 mm 3 m/s 662 mmHg 40%
    22:00 +3°C° 0 mm 3 m/s 662 mmHg 42%
    23:00 +2°C° 0 mm 3 m/s 663 mmHg 43%

    Amanhã, 26 Setembro, Quarta-feira

    Tempo Temperatura Precipitação Vento Pressão Humidade
    00:00 +2°C° 0 mm 3 m/s 663 mmHg 45%
    01:00 +1°C° 0 mm 3 m/s 663 mmHg 47%
    02:00 +1°C° 0 mm 3 m/s 663 mmHg 49%
    03:00 +1°C° 0 mm 3 m/s 663 mmHg 51%
    04:00 0°C° 0 mm 3 m/s 663 mmHg 52%
    05:00 0°C° 0 mm 3 m/s 663 mmHg 54%
    06:00 0°C° 0 mm 4 m/s 663 mmHg 52%
    07:00 +1°C° 0 mm 4 m/s 664 mmHg 50%
    08:00 +3°C° 0 mm 4 m/s 664 mmHg 49%
    09:00 +3°C° 0 mm 5 m/s 665 mmHg 44%
    10:00 +6°C° 0 mm 5 m/s 665 mmHg 40%
    11:00 +7°C° 0 mm 6 m/s 666 mmHg 35%
    12:00 +8°C° 0 mm 6 m/s 665 mmHg 34%
    13:00 +8°C° 0 mm 7 m/s 665 mmHg 33%
    14:00 +8°C° 0 mm 7 m/s 665 mmHg 32%
    15:00 +8°C° 0 mm 7 m/s 664 mmHg 34%
    16:00 +6°C° 0 mm 7 m/s 664 mmHg 36%
    17:00 +5°C° 0 mm 7 m/s 664 mmHg 39%
    18:00 +4°C° 0 mm 6 m/s 664 mmHg 43%
    19:00 +2°C° 0 mm 5 m/s 664 mmHg 48%
    20:00 +1°C° 0 mm 5 m/s 664 mmHg 53%
    21:00 0°C° 0 mm 5 m/s 664 mmHg 54%
    22:00 0°C° 0 mm 5 m/s 664 mmHg 56%
    23:00 -1°C° 0 mm 5 m/s 664 mmHg 58%

    Depois de amanhã, 27 Setembro, Quinta-feira

    Tempo Temperatura Precipitação Vento Pressão Humidade
    00:00 -1°C° 0 mm 5 m/s 663 mmHg 59%
    01:00 -1°C° 0 mm 5 m/s 663 mmHg 60%
    02:00 -2°C° 0 mm 5 m/s 663 mmHg 61%
    03:00 -2°C° 0 mm 5 m/s 663 mmHg 61%
    04:00 -2°C° 0 mm 5 m/s 662 mmHg 61%
    05:00 -2°C° 0 mm 5 m/s 662 mmHg 61%
    06:00 -1°C° 0 mm 5 m/s 662 mmHg 56%
    07:00 -1°C° 0 mm 6 m/s 662 mmHg 51%
    08:00 +1°C° 0 mm 6 m/s 663 mmHg 46%
    09:00 +3°C° 0 mm 6 m/s 663 mmHg 40%
    10:00 +4°C° 0 mm 7 m/s 663 mmHg 35%
    11:00 +6°C° 0 mm 7 m/s 663 mmHg 29%
    12:00 +8°C° 0 mm 7 m/s 663 mmHg 28%
    13:00 +9°C° 0 mm 7 m/s 662 mmHg 27%
    14:00 +10°C° 0 mm 7 m/s 662 mmHg 25%
    15:00 +9°C° 0 mm 7 m/s 662 mmHg 27%
    16:00 +9°C° 0 mm 6 m/s 661 mmHg 28%
    17:00 +8°C° 0 mm 6 m/s 661 mmHg 29%
    18:00 +6°C° 0 mm 5 m/s 660 mmHg 33%
    19:00 +5°C° 0 mm 5 m/s 660 mmHg 36%
    20:00 +3°C° 0 mm 4 m/s 660 mmHg 40%
    21:00 +3°C° 0 mm 4 m/s 660 mmHg 40%
    22:00 +3°C° 0 mm 4 m/s 660 mmHg 40%
    23:00 +3°C° 0 mm 4 m/s 660 mmHg 40%

    28 Setembro, Sexta-feira

    Tempo Temperatura Precipitação Vento Pressão Humidade
    00:00 +3°C° 0.1 mm 4 m/s 660 mmHg 42%
    01:00 +3°C° 0.1 mm 4 m/s 659 mmHg 45%
    02:00 +3°C° 0.1 mm 4 m/s 659 mmHg 47%
    03:00 +3°C° 0.3 mm 4 m/s 659 mmHg 50%
    04:00 +1°C° 0.3 mm 4 m/s 658 mmHg 54%
    05:00 +1°C° 0.3 mm 4 m/s 658 mmHg 57%
    06:00 +1°C° 0.1 mm 4 m/s 658 mmHg 58%
    07:00 +3°C° 0.1 mm 4 m/s 658 mmHg 59%
    08:00 +3°C° 0.1 mm 4 m/s 658 mmHg 59%
    09:00 +5°C° 0 mm 4 m/s 659 mmHg 59%
    10:00 +7°C° 0 mm 3 m/s 659 mmHg 58%
    11:00 +9°C° 0 mm 3 m/s 659 mmHg 57%
    12:00 +10°C° 0.1 mm 3 m/s 659 mmHg 56%
    13:00 +11°C° 0.1 mm 3 m/s 659 mmHg 55%
    14:00 +12°C° 0.1 mm 3 m/s 659 mmHg 54%
    15:00 +12°C° 0 mm 3 m/s 658 mmHg 55%
    16:00 +12°C° 0 mm 3 m/s 658 mmHg 56%
    17:00 +13°C° 0 mm 2 m/s 657 mmHg 57%
    18:00 +10°C° 0.2 mm 2 m/s 657 mmHg 62%
    19:00 +9°C° 0.2 mm 2 m/s 657 mmHg 67%
    20:00 +8°C° 0.2 mm 2 m/s 656 mmHg 71%
    21:00 +8°C° 1.7 mm 2 m/s 656 mmHg 76%
    22:00 +7°C° 1.7 mm 2 m/s 656 mmHg 80%
    23:00 +7°C° 1.7 mm 2 m/s 656 mmHg 84%

    29 Setembro, Sábado

    Tempo Temperatura Precipitação Vento Pressão Humidade
    00:00 +7°C° 1 mm 2 m/s 656 mmHg 85%
    01:00 +7°C° 1 mm 2 m/s 656 mmHg 86%
    02:00 +6°C° 1 mm 2 m/s 656 mmHg 87%
    03:00 +6°C° 0.1 mm 2 m/s 655 mmHg 87%
    04:00 +6°C° 0.1 mm 2 m/s 655 mmHg 87%
    05:00 +6°C° 0.1 mm 2 m/s 655 mmHg 87%
    06:00 +8°C° 0 mm 1 m/s 655 mmHg 85%
    07:00 +8°C° 0 mm 1 m/s 655 mmHg 83%
    08:00 +9°C° 0 mm 1 m/s 656 mmHg 81%
    09:00 +11°C° 0 mm 1 m/s 656 mmHg 74%
    10:00 +13°C° 0 mm 1 m/s 657 mmHg 67%
    11:00 +14°C° 0 mm 1 m/s 657 mmHg 61%
    12:00 +15°C° 0.1 mm 1 m/s 657 mmHg 58%
    13:00 +15°C° 0.1 mm 1 m/s 657 mmHg 56%
    14:00 +16°C° 0.1 mm 2 m/s 657 mmHg 54%
    15:00 +15°C° 0.2 mm 1 m/s 657 mmHg 56%
    16:00 +15°C° 0.2 mm 1 m/s 657 mmHg 58%
    17:00 +14°C° 0.2 mm 1 m/s 656 mmHg 60%
    18:00 +13°C° 0.1 mm 1 m/s 656 mmHg 65%
    19:00 +11°C° 0.1 mm 1 m/s 656 mmHg 70%
    20:00 +10°C° 0.1 mm 1 m/s 656 mmHg 76%
    21:00 +8°C° 0 mm 2 m/s 656 mmHg 76%
    22:00 +8°C° 0 mm 2 m/s 657 mmHg 77%
    23:00 +8°C° 0 mm 2 m/s 657 mmHg 78%

    30 Setembro, Domingo

    Tempo Temperatura Precipitação Vento Pressão Humidade
    00:00 +8°C° 0 mm 2 m/s 657 mmHg 79%
    01:00 +7°C° 0 mm 2 m/s 657 mmHg 80%
    02:00 +7°C° 0 mm 2 m/s 657 mmHg 81%
    03:00 +6°C° 0 mm 2 m/s 657 mmHg 81%
    04:00 +6°C° 0 mm 2 m/s 657 mmHg 81%
    05:00 +6°C° 0 mm 2 m/s 657 mmHg 81%
    06:00 +7°C° 0 mm 2 m/s 658 mmHg 76%
    07:00 +8°C° 0 mm 2 m/s 658 mmHg 71%
    08:00 +10°C° 0 mm 2 m/s 659 mmHg 66%
    09:00 +13°C° 0 mm 2 m/s 660 mmHg 59%
    10:00 +14°C° 0 mm 2 m/s 660 mmHg 51%
    11:00 +16°C° 0 mm 2 m/s 661 mmHg 43%
    12:00 +17°C° 0 mm 2 m/s 661 mmHg 43%
    13:00 +17°C° 0 mm 2 m/s 660 mmHg 43%
    14:00 +17°C° 0 mm 2 m/s 660 mmHg 43%
    15:00 +16°C° 0.1 mm 2 m/s 660 mmHg 46%
    16:00 +16°C° 0.1 mm 2 m/s 660 mmHg 48%
    17:00 +15°C° 0.1 mm 2 m/s 659 mmHg 51%
    18:00 +14°C° 0 mm 1 m/s 659 mmHg 56%
    19:00 +12°C° 0 mm 1 m/s 659 mmHg 61%
    20:00 +11°C° 0 mm 1 m/s 659 mmHg 65%
    21:00 +10°C° 0 mm 1 m/s 659 mmHg 69%
    22:00 +10°C° 0 mm 1 m/s 659 mmHg 73%
    23:00 +9°C° 0 mm 1 m/s 659 mmHg 76%
    Mostrar mais